This is the latest recevied weather packets stored in our database for station/object HS5SQI-2. If no packets are shown the sender has not sent any weather packets the latest 10 day(s).
| Time | Temp. | Humidity | Pressure | Rain* | Wind** | Luminosity | Snow |
|---|---|---|---|---|---|---|---|
| 1777817132 | 33.89° C | 63% | 1006 hPa | - | - | 0 W/m² | - |
| 1777816510 | 34.44° C | 62% | 1006 hPa | - | - | 0 W/m² | - |
| 1777815888 | 33.89° C | 63% | 1006 hPa | - | - | 0 W/m² | - |
| 1777815266 | 34.44° C | 63% | 1006 hPa | - | - | 0 W/m² | - |
| 1777814644 | 34.44° C | 61% | 1006 hPa | - | - | 0 W/m² | - |
| 1777814022 | 35° C | 62% | 1005 hPa | - | - | 0 W/m² | - |
| 1777813400 | 35° C | 62% | 1005 hPa | - | - | 0 W/m² | - |
| 1777812778 | 35° C | 61% | 1005 hPa | - | - | 0 W/m² | - |
| 1777812155 | 35° C | 61% | 1005 hPa | - | - | 0 W/m² | - |
| 1777811534 | 35° C | 60% | 1005 hPa | - | - | 0 W/m² | - |
| 1777810912 | 35.56° C | 60% | 1005 hPa | - | - | 0 W/m² | - |
| 1777810290 | 35.56° C | 57% | 1005 hPa | - | - | 0 W/m² | - |
| 1777809668 | 36.11° C | 57% | 1005 hPa | - | - | 0 W/m² | - |
| 1777809046 | 36.11° C | 55% | 1005 hPa | - | - | 0 W/m² | - |
| 1777808424 | 36.11° C | 55% | 1005 hPa | - | - | 0 W/m² | - |
| 1777807802 | 36.11° C | 53% | 1005 hPa | - | - | 0 W/m² | - |
| 1777807179 | 37.22° C | 52% | 1004 hPa | - | - | 0 W/m² | - |
| 1777806558 | 36.67° C | 55% | 1004 hPa | - | - | 0 W/m² | - |
| 1777805936 | 37.22° C | 54% | 1004 hPa | - | - | 0 W/m² | - |
| 1777805314 | 37.22° C | 53% | 1004 hPa | - | - | 0 W/m² | - |
| 1777804691 | 37.22° C | 51% | 1003 hPa | - | - | 0 W/m² | - |
| 1777804069 | 37.22° C | 51% | 1003 hPa | - | - | 0 W/m² | - |
| 1777803447 | 37.78° C | 50% | 1003 hPa | - | - | 0 W/m² | - |
| 1777802825 | 37.78° C | 50% | 1003 hPa | - | - | 0 W/m² | - |
| 1777802203 | 37.22° C | 52% | 1003 hPa | - | - | 0 W/m² | - |
* Rain since midnight (hover to see other rain measurements)
** Current wind speed in m/s (hover to see current wind gust speed)